Printer-friendly version

IAU Minor Planet Center

Minor Planet Center

MPEC 2006-V01 : 2006 UK217

The following Minor Planet Electronic Circular may be linked-to from your own Web pages, but must not otherwise be redistributed electronically.

A form allowing access to any MPEC is at the bottom of this page.


Read MPEC 2006-U99 Read MPEC 2006-V02


M.P.E.C. 2006-V01                                Issued 2006 Nov. 1, 00:56 UT

     The Minor Planet Electronic Circulars contain information on unusual
         minor planets and routine data on comets.  They are published
   on behalf of Commission 20 of the International Astronomical Union by the
          Minor Planet Center, Smithsonian Astrophysical Observatory,
                          Cambridge, MA 02138, U.S.A.

             Prepared using the Tamkin Foundation Computer Network

                              MPC@CFA.HARVARD.EDU
          URL http://cfa-www.harvard.edu/iau/mpc.html  ISSN 1523-6714

                                  2006 UK217

Observations:
     K06UL7K* C2006 10 31.32524 04 12 59.02 +00 31 18.1          17.7   EV001704
     K06UL7K  C2006 10 31.33678 04 12 58.17 +00 29 55.9          17.9   EV001704
     K06UL7K  C2006 10 31.34832 04 12 57.30 +00 28 32.8          17.9   EV001704
     K06UL7K  C2006 10 31.35999 04 12 56.41 +00 27 09.5          17.8   EV001704
     K06UL7K  C2006 10 31.37171 04 12 55.60 +00 25 45.7          18.2   EV001704
     K06UL7K  C2006 11 01.01411 04 12 13.26 -00 52 28.3                 EV001J95
     K06UL7K  C2006 11 01.01600 04 12 13.11 -00 52 42.7                 EV001J95
     K06UL7K  C2006 11 01.01790 04 12 12.98 -00 52 56.7          18.5 R EV001J95

Observer details:
704 Lincoln Laboratory ETS, New Mexico.  Observers M. Bezpalko, L. Manguso,
    D. Torres, R. Kracke, H. Love, G. Spitz, J. Kistler.  Measurers J. Stuart,
    J. Kommers.  1.0-m f/2.15 reflector + CCD.
J95 Great Shefford.  Observer P. Birtwhistle.  0.40-m f/6.0 Schmidt-Cassegrain
    + CCD.

Orbital elements:
2006 UK217                                               Earth MOID = 0.2365 AU
Epoch 2006 Sept. 22.0 TT = JDT 2454000.5                MPC
M 275.07864              (2000.0)            P               Q
n   0.69714109     Peri.  314.78850     -0.90769474     -0.23571813
a   1.2596665      Node   216.21986     +0.20902697     -0.97135796
e   0.5834067      Incl.   35.98281     -0.36386534     +0.03001138
P   1.41           H   18.5           G   0.15           U   9
Residuals in seconds of arc
061031 704  0.1+  0.0     061031 704  0.5-  0.1-    061101 J95  0.1-  0.2-
061031 704  0.1+  0.3+    061031 704  0.4+  0.1+    061101 J95  0.1+  0.0
061031 704  0.1-  0.3-    061101 J95  0.0   0.2+

Ephemeris:
2006 UK217               a,e,i = 1.26, 0.58, 36                  q = 0.5248
Date    TT    R. A. (2000) Decl.     Delta      r     Elong.  Phase     V
2006 11 01    04 12.23   -00 50.3    0.306    1.266   149.2    23.7    17.6
2006 11 06    04 04.83   -12 37.4    0.267    1.220   145.2    27.7    17.3
2006 11 11    03 53.19   -27 02.5    0.245    1.173   134.1    37.3    17.3
2006 11 16    03 35.23   -42 29.8    0.241    1.125   118.8    50.4    17.5
2006 11 21    03 07.04   -56 34.3    0.254    1.075   103.2    63.5    17.9
2006 11 26    02 20.69   -67 37.0    0.281    1.024    89.4    74.6    18.4
2006 12 01    01 01.22   -75 02.0    0.317    0.971    78.0    83.4    18.9
2006 12 06    22 58.59   -78 21.7    0.357    0.917    68.5    90.2    19.3
2006 12 11    20 55.34   -77 44.3    0.399    0.862    60.6    95.5    19.6

                       (Last issue was M.P.E.C. 2006-U99)

Timothy B. Spahr             (C) Copyright 2006 MPC           M.P.E.C. 2006-V01

Read MPEC 2006-U99 Read MPEC 2006-V02


MPEC number:

Enter an
MPEC number in one of the following forms:
  • 1997-B01 (the full form)
  • J97B01 (the packed version of the full form)
  • B01 (the abbreviated form)

Valid HTML 4.01!